owner,sensor,date,latitude,longitude,relative_humidity,qcFlag 
COMPS,ioos:station:USF.COMPS:C12:1,2015-10-01T00:05:00Z,27.4980,-83.7220,100.44,1111122 
COMPS,ioos:station:USF.COMPS:C12:1,2015-10-01T00:35:00Z,27.4980,-83.7220,100.44,1111122 
COMPS,ioos:station:USF.COMPS:C12:1,2015-10-01T01:05:00Z,27.4980,-83.7220,100.45,1111122 
COMPS,ioos:station:USF.COMPS:C12:1,2015-10-01T01:35:00Z,27.4980,-83.7220,100.44,1111122 
COMPS,ioos:station:USF.COMPS:C12:1,2015-10-01T02:05:00Z,27.4980,-83.7220,100.45,1111122 
COMPS,ioos:station:USF.COMPS:C12:1,2015-10-01T02:35:00Z,27.4980,-83.7220,100.2,1111122 
COMPS,ioos:station:USF.COMPS:C12:1,2015-10-01T04:05:00Z,27.4980,-83.7220,100.45,1111122 
COMPS,ioos:station:USF.COMPS:C12:1,2015-10-01T04:35:00Z,27.4980,-83.7220,100.45,1111122 
COMPS,ioos:station:USF.COMPS:C12:1,2015-10-01T05:05:00Z,27.4980,-83.7220,100.46,1111122 
COMPS,ioos:station:USF.COMPS:C12:1,2015-10-01T05:35:00Z,27.4980,-83.7220,100.45,1111122 
COMPS,ioos:station:USF.COMPS:C12:1,2015-10-01T06:05:00Z,27.4980,-83.7220,100.44,1111122 
COMPS,ioos:station:USF.COMPS:C12:1,2015-10-01T06:35:00Z,27.4980,-83.7220,100.46,1111122 
COMPS,ioos:station:USF.COMPS:C12:1,2015-10-01T07:05:00Z,27.4980,-83.7220,100.47,1111122 
COMPS,ioos:station:USF.COMPS:C12:1,2015-10-01T07:35:00Z,27.4980,-83.7220,100.46,1111122 
COMPS,ioos:station:USF.COMPS:C12:1,2015-10-01T08:05:00Z,27.4980,-83.7220,100.45,1111122 
COMPS,ioos:station:USF.COMPS:C12:1,2015-10-01T08:35:00Z,27.4980,-83.7220,100.44,1111122 
COMPS,ioos:station:USF.COMPS:C12:1,2015-10-01T09:05:00Z,27.4980,-83.7220,100.47,1111122 
COMPS,ioos:station:USF.COMPS:C12:1,2015-10-01T09:35:00Z,27.4980,-83.7220,100.44,1111122 
COMPS,ioos:station:USF.COMPS:C12:1,2015-10-01T10:05:00Z,27.4980,-83.7220,100.32,1111122 
COMPS,ioos:station:USF.COMPS:C12:1,2015-10-01T10:35:00Z,27.4980,-83.7220,100.39,1111122 
COMPS,ioos:station:USF.COMPS:C12:1,2015-10-01T11:05:00Z,27.4980,-83.7220,100.45,1111122 
COMPS,ioos:station:USF.COMPS:C12:1,2015-10-01T11:35:00Z,27.4980,-83.7220,100.45,1111122 
COMPS,ioos:station:USF.COMPS:C12:1,2015-10-01T12:05:00Z,27.4980,-83.7220,100.35,1111122 
COMPS,ioos:station:USF.COMPS:C12:1,2015-10-01T12:35:00Z,27.4980,-83.7220,100.42,1111122 
COMPS,ioos:station:USF.COMPS:C12:1,2015-10-01T13:05:00Z,27.4980,-83.7220,100.32,1111122 
COMPS,ioos:station:USF.COMPS:C12:1,2015-10-01T13:35:00Z,27.4980,-83.7220,99.91,1111122 
COMPS,ioos:station:USF.COMPS:C12:1,2015-10-01T14:05:00Z,27.4980,-83.7220,100.48,1111122 
COMPS,ioos:station:USF.COMPS:C12:1,2015-10-01T14:35:00Z,27.4980,-83.7220,100.47,1111122 
COMPS,ioos:station:USF.COMPS:C12:1,2015-10-01T15:05:00Z,27.4980,-83.7220,100.45,1111122 
COMPS,ioos:station:USF.COMPS:C12:1,2015-10-01T15:35:00Z,27.4980,-83.7220,99.91,1111122 
COMPS,ioos:station:USF.COMPS:C12:1,2015-10-01T16:05:00Z,27.4980,-83.7220,100.45,1111122 
COMPS,ioos:station:USF.COMPS:C12:1,2015-10-01T16:35:00Z,27.4980,-83.7220,100.45,1111122 
COMPS,ioos:station:USF.COMPS:C12:1,2015-10-01T17:05:00Z,27.4980,-83.7220,100.44,1111122 
COMPS,ioos:station:USF.COMPS:C12:1,2015-10-01T17:35:00Z,27.4980,-83.7220,100.44,1111122 
COMPS,ioos:station:USF.COMPS:C12:1,2015-10-01T18:05:00Z,27.4980,-83.7220,100.11,1111122 
COMPS,ioos:station:USF.COMPS:C12:1,2015-10-01T18:35:00Z,27.4980,-83.7220,100.44,1111122 
COMPS,ioos:station:USF.COMPS:C12:1,2015-10-01T19:05:00Z,27.4980,-83.7220,100.46,1111122 
COMPS,ioos:station:USF.COMPS:C12:1,2015-10-01T19:35:00Z,27.4980,-83.7220,100.45,1111122 
COMPS,ioos:station:USF.COMPS:C12:1,2015-10-01T20:05:00Z,27.4980,-83.7220,100.46,1111122 
COMPS,ioos:station:USF.COMPS:C12:1,2015-10-01T20:35:00Z,27.4980,-83.7220,100.46,1111122 
COMPS,ioos:station:USF.COMPS:C12:1,2015-10-01T21:05:00Z,27.4980,-83.7220,100.45,1111122 
COMPS,ioos:station:USF.COMPS:C12:1,2015-10-01T21:35:00Z,27.4980,-83.7220,100.47,1111122 
COMPS,ioos:station:USF.COMPS:C12:1,2015-10-01T22:05:00Z,27.4980,-83.7220,100.44,1111122 
COMPS,ioos:station:USF.COMPS:C12:1,2015-10-01T22:35:00Z,27.4980,-83.7220,100.45,1111122 
COMPS,ioos:station:USF.COMPS:C12:1,2015-10-01T23:05:00Z,27.4980,-83.7220,100.45,1111122 
COMPS,ioos:station:USF.COMPS:C12:1,2015-10-01T23:35:00Z,27.4980,-83.7220,100.44,1111122 
COMPS,ioos:station:USF.COMPS:C12:1,2015-10-02T00:05:00Z,27.4980,-83.7220,100.44,1111122 
COMPS,ioos:station:USF.COMPS:C12:1,2015-10-02T00:35:00Z,27.4980,-83.7220,100.44,1111122 
COMPS,ioos:station:USF.COMPS:C12:1,2015-10-02T01:05:00Z,27.4980,-83.7220,100.44,1111122 
COMPS,ioos:station:USF.COMPS:C12:1,2015-10-02T01:35:00Z,27.4980,-83.7220,100.46,1111122 
COMPS,ioos:station:USF.COMPS:C12:1,2015-10-02T02:05:00Z,27.4980,-83.7220,100.29,1111122 
COMPS,ioos:station:USF.COMPS:C12:1,2015-10-02T02:35:00Z,27.4980,-83.7220,100.45,1111122 
COMPS,ioos:station:USF.COMPS:C12:1,2015-10-02T04:05:00Z,27.4980,-83.7220,100.28,1111122 
COMPS,ioos:station:USF.COMPS:C12:1,2015-10-02T04:35:00Z,27.4980,-83.7220,100.4,1111122 
COMPS,ioos:station:USF.COMPS:C12:1,2015-10-02T05:05:00Z,27.4980,-83.7220,100.45,1111122 
COMPS,ioos:station:USF.COMPS:C12:1,2015-10-02T05:35:00Z,27.4980,-83.7220,100.46,1111122 
COMPS,ioos:station:USF.COMPS:C12:1,2015-10-02T06:05:00Z,27.4980,-83.7220,100.47,1111122 
COMPS,ioos:station:USF.COMPS:C12:1,2015-10-02T06:35:00Z,27.4980,-83.7220,100.43,1111122 
COMPS,ioos:station:USF.COMPS:C12:1,2015-10-02T07:05:00Z,27.4980,-83.7220,100.47,1111122 
COMPS,ioos:station:USF.COMPS:C12:1,2015-10-02T07:35:00Z,27.4980,-83.7220,100.42,1111122 
COMPS,ioos:station:USF.COMPS:C12:1,2015-10-02T08:05:00Z,27.4980,-83.7220,100.46,1111122 
COMPS,ioos:station:USF.COMPS:C12:1,2015-10-02T08:35:00Z,27.4980,-83.7220,100.46,1111122 
COMPS,ioos:station:USF.COMPS:C12:1,2015-10-02T09:05:00Z,27.4980,-83.7220,100.48,1111122 
COMPS,ioos:station:USF.COMPS:C12:1,2015-10-02T09:35:00Z,27.4980,-83.7220,100.31,1111122 
COMPS,ioos:station:USF.COMPS:C12:1,2015-10-02T10:05:00Z,27.4980,-83.7220,100.47,1111122 
COMPS,ioos:station:USF.COMPS:C12:1,2015-10-02T10:35:00Z,27.4980,-83.7220,100.44,1111122 
COMPS,ioos:station:USF.COMPS:C12:1,2015-10-02T11:05:00Z,27.4980,-83.7220,100.45,1111122 
COMPS,ioos:station:USF.COMPS:C12:1,2015-10-02T11:35:00Z,27.4980,-83.7220,100.37,1111122 
COMPS,ioos:station:USF.COMPS:C12:1,2015-10-02T12:05:00Z,27.4980,-83.7220,100.45,1111122 
COMPS,ioos:station:USF.COMPS:C12:1,2015-10-02T12:35:00Z,27.4980,-83.7220,100.48,1111122 
COMPS,ioos:station:USF.COMPS:C12:1,2015-10-02T13:05:00Z,27.4980,-83.7220,100.47,1111122 
COMPS,ioos:station:USF.COMPS:C12:1,2015-10-02T13:35:00Z,27.4980,-83.7220,100.48,1111122 
COMPS,ioos:station:USF.COMPS:C12:1,2015-10-02T14:05:00Z,27.4980,-83.7220,100.47,1111122 
COMPS,ioos:station:USF.COMPS:C12:1,2015-10-02T14:35:00Z,27.4980,-83.7220,100.23,1111122 
COMPS,ioos:station:USF.COMPS:C12:1,2015-10-02T15:05:00Z,27.4980,-83.7220,100.46,1111122 
COMPS,ioos:station:USF.COMPS:C12:1,2015-10-02T15:35:00Z,27.4980,-83.7220,100.46,1111122 
COMPS,ioos:station:USF.COMPS:C12:1,2015-10-03T04:05:00Z,27.4980,-83.7220,100.57,1111122 
COMPS,ioos:station:USF.COMPS:C12:1,2015-10-03T04:35:00Z,27.4980,-83.7220,100.56,1111122 
COMPS,ioos:station:USF.COMPS:C12:1,2015-10-03T05:05:00Z,27.4980,-83.7220,100.55,1111122 
COMPS,ioos:station:USF.COMPS:C12:1,2015-10-03T05:35:00Z,27.4980,-83.7220,100.52,1111122 
COMPS,ioos:station:USF.COMPS:C12:1,2015-10-03T06:05:00Z,27.4980,-83.7220,100.47,1111122 
COMPS,ioos:station:USF.COMPS:C12:1,2015-10-03T06:35:00Z,27.4980,-83.7220,100.52,1111122 
COMPS,ioos:station:USF.COMPS:C12:1,2015-10-03T07:05:00Z,27.4980,-83.7220,100.57,1111122 
COMPS,ioos:station:USF.COMPS:C12:1,2015-10-03T07:35:00Z,27.4980,-83.7220,100.54,1111122 
COMPS,ioos:station:USF.COMPS:C12:1,2015-10-03T08:05:00Z,27.4980,-83.7220,100.58,1111122 
COMPS,ioos:station:USF.COMPS:C12:1,2015-10-03T08:35:00Z,27.4980,-83.7220,100.55,1111122 
COMPS,ioos:station:USF.COMPS:C12:1,2015-10-03T09:05:00Z,27.4980,-83.7220,100.52,1111122 
COMPS,ioos:station:USF.COMPS:C12:1,2015-10-03T09:35:00Z,27.4980,-83.7220,100.52,1111122 
COMPS,ioos:station:USF.COMPS:C12:1,2015-10-03T10:05:00Z,27.4980,-83.7220,100.52,1111122 
COMPS,ioos:station:USF.COMPS:C12:1,2015-10-03T10:35:00Z,27.4980,-83.7220,100.49,1111122 
COMPS,ioos:station:USF.COMPS:C12:1,2015-10-03T11:05:00Z,27.4980,-83.7220,100.48,1111122 
COMPS,ioos:station:USF.COMPS:C12:1,2015-10-03T11:35:00Z,27.4980,-83.7220,100.52,1111122 
COMPS,ioos:station:USF.COMPS:C12:1,2015-10-03T12:05:00Z,27.4980,-83.7220,100.56,1111122 
COMPS,ioos:station:USF.COMPS:C12:1,2015-10-03T12:35:00Z,27.4980,-83.7220,100.53,1111122 
COMPS,ioos:station:USF.COMPS:C12:1,2015-10-03T13:05:00Z,27.4980,-83.7220,100.54,1111122 
COMPS,ioos:station:USF.COMPS:C12:1,2015-10-03T13:35:00Z,27.4980,-83.7220,100.55,1111122 
COMPS,ioos:station:USF.COMPS:C12:1,2015-10-03T14:05:00Z,27.4980,-83.7220,100.57,1111122 
COMPS,ioos:station:USF.COMPS:C12:1,2015-10-03T14:35:00Z,27.4980,-83.7220,100.53,1111122 
COMPS,ioos:station:USF.COMPS:C12:1,2015-10-03T15:05:00Z,27.4980,-83.7220,100.52,1111122 
COMPS,ioos:station:USF.COMPS:C12:1,2015-10-03T15:35:00Z,27.4980,-83.7220,100.54,1111122 
COMPS,ioos:station:USF.COMPS:C12:1,2015-10-03T16:05:00Z,27.4980,-83.7220,100.59,1111122 
COMPS,ioos:station:USF.COMPS:C12:1,2015-10-03T16:35:00Z,27.4980,-83.7220,100.59,1111122 
COMPS,ioos:station:USF.COMPS:C12:1,2015-10-03T17:05:00Z,27.4980,-83.7220,100.57,1111122 
COMPS,ioos:station:USF.COMPS:C12:1,2015-10-03T17:35:00Z,27.4980,-83.7220,100.51,1111122 
COMPS,ioos:station:USF.COMPS:C12:1,2015-10-03T18:05:00Z,27.4980,-83.7220,100.57,1111122 
COMPS,ioos:station:USF.COMPS:C12:1,2015-10-03T18:35:00Z,27.4980,-83.7220,100.58,1111122 
COMPS,ioos:station:USF.COMPS:C12:1,2015-10-03T19:05:00Z,27.4980,-83.7220,100.59,1111122 
COMPS,ioos:station:USF.COMPS:C12:1,2015-10-03T19:35:00Z,27.4980,-83.7220,100.64,1111122 
COMPS,ioos:station:USF.COMPS:C12:1,2015-10-03T20:05:00Z,27.4980,-83.7220,100.57,1111122 
COMPS,ioos:station:USF.COMPS:C12:1,2015-10-03T20:35:00Z,27.4980,-83.7220,100.6,1111122 
COMPS,ioos:station:USF.COMPS:C12:1,2015-10-03T21:05:00Z,27.4980,-83.7220,100.63,1111122 
COMPS,ioos:station:USF.COMPS:C12:1,2015-10-03T21:35:00Z,27.4980,-83.7220,100.56,1111122 
COMPS,ioos:station:USF.COMPS:C12:1,2015-10-03T22:05:00Z,27.4980,-83.7220,100.55,1111122 
COMPS,ioos:station:USF.COMPS:C12:1,2015-10-03T22:35:00Z,27.4980,-83.7220,100.56,1111122 
COMPS,ioos:station:USF.COMPS:C12:1,2015-10-03T23:05:00Z,27.4980,-83.7220,100.54,1111122 
COMPS,ioos:station:USF.COMPS:C12:1,2015-10-03T23:35:00Z,27.4980,-83.7220,100.51,1111122 
COMPS,ioos:station:USF.COMPS:C12:1,2015-10-04T00:05:00Z,27.4980,-83.7220,100.48,1111122 
COMPS,ioos:station:USF.COMPS:C12:1,2015-10-04T00:35:00Z,27.4980,-83.7220,100.48,1111122 
COMPS,ioos:station:USF.COMPS:C12:1,2015-10-04T01:05:00Z,27.4980,-83.7220,100.49,1111122 
COMPS,ioos:station:USF.COMPS:C12:1,2015-10-04T01:35:00Z,27.4980,-83.7220,100.51,1111122 
COMPS,ioos:station:USF.COMPS:C12:1,2015-10-04T02:05:00Z,27.4980,-83.7220,100.45,1111122 
COMPS,ioos:station:USF.COMPS:C12:1,2015-10-04T02:35:00Z,27.4980,-83.7220,100.48,1111122 
COMPS,ioos:station:USF.COMPS:C12:1,2015-10-04T04:05:00Z,27.4980,-83.7220,100.44,1111122 
COMPS,ioos:station:USF.COMPS:C12:1,2015-10-04T04:35:00Z,27.4980,-83.7220,100.46,1111122 
COMPS,ioos:station:USF.COMPS:C12:1,2015-10-04T05:05:00Z,27.4980,-83.7220,100.44,1111122 
COMPS,ioos:station:USF.COMPS:C12:1,2015-10-04T05:35:00Z,27.4980,-83.7220,100.5,1111122 
COMPS,ioos:station:USF.COMPS:C12:1,2015-10-04T06:05:00Z,27.4980,-83.7220,100.48,1111122 
COMPS,ioos:station:USF.COMPS:C12:1,2015-10-04T06:35:00Z,27.4980,-83.7220,100.52,1111122 
COMPS,ioos:station:USF.COMPS:C12:1,2015-10-04T07:05:00Z,27.4980,-83.7220,100.53,1111122 
COMPS,ioos:station:USF.COMPS:C12:1,2015-10-04T07:35:00Z,27.4980,-83.7220,100.52,1111122 
COMPS,ioos:station:USF.COMPS:C12:1,2015-10-04T08:05:00Z,27.4980,-83.7220,100.56,1111122 
COMPS,ioos:station:USF.COMPS:C12:1,2015-10-04T08:35:00Z,27.4980,-83.7220,100.58,1111122 
COMPS,ioos:station:USF.COMPS:C12:1,2015-10-04T09:05:00Z,27.4980,-83.7220,100.55,1111122 
COMPS,ioos:station:USF.COMPS:C12:1,2015-10-04T09:35:00Z,27.4980,-83.7220,100.52,1111122 
COMPS,ioos:station:USF.COMPS:C12:1,2015-10-04T10:05:00Z,27.4980,-83.7220,100.5,1111122 
COMPS,ioos:station:USF.COMPS:C12:1,2015-10-04T10:35:00Z,27.4980,-83.7220,100.52,1111122 
COMPS,ioos:station:USF.COMPS:C12:1,2015-10-04T11:05:00Z,27.4980,-83.7220,100.48,1111122 
COMPS,ioos:station:USF.COMPS:C12:1,2015-10-04T11:35:00Z,27.4980,-83.7220,100.47,1111122 
COMPS,ioos:station:USF.COMPS:C12:1,2015-10-04T12:05:00Z,27.4980,-83.7220,100.53,1111122 
COMPS,ioos:station:USF.COMPS:C12:1,2015-10-04T12:35:00Z,27.4980,-83.7220,100.51,1111122 
COMPS,ioos:station:USF.COMPS:C12:1,2015-10-04T13:05:00Z,27.4980,-83.7220,100.26,1111122 
COMPS,ioos:station:USF.COMPS:C12:1,2015-10-04T13:35:00Z,27.4980,-83.7220,100.47,1111122 
COMPS,ioos:station:USF.COMPS:C12:1,2015-10-04T14:05:00Z,27.4980,-83.7220,100.53,1111122 
COMPS,ioos:station:USF.COMPS:C12:1,2015-10-04T14:35:00Z,27.4980,-83.7220,100.49,1111122 
COMPS,ioos:station:USF.COMPS:C12:1,2015-10-04T15:05:00Z,27.4980,-83.7220,100.49,1111122 
COMPS,ioos:station:USF.COMPS:C12:1,2015-10-04T15:35:00Z,27.4980,-83.7220,100.51,1111122 
COMPS,ioos:station:USF.COMPS:C12:1,2015-10-04T16:05:00Z,27.4980,-83.7220,100.5,1111122 
COMPS,ioos:station:USF.COMPS:C12:1,2015-10-04T16:35:00Z,27.4980,-83.7220,100.58,1111122 
COMPS,ioos:station:USF.COMPS:C12:1,2015-10-04T17:05:00Z,27.4980,-83.7220,100.55,1111122 
COMPS,ioos:station:USF.COMPS:C12:1,2015-10-04T17:35:00Z,27.4980,-83.7220,100.6,1111122 
COMPS,ioos:station:USF.COMPS:C12:1,2015-10-04T18:05:00Z,27.4980,-83.7220,100.58,1111122 
COMPS,ioos:station:USF.COMPS:C12:1,2015-10-04T18:35:00Z,27.4980,-83.7220,100.64,1111122 
COMPS,ioos:station:USF.COMPS:C12:1,2015-10-04T19:05:00Z,27.4980,-83.7220,100.63,1111122 
COMPS,ioos:station:USF.COMPS:C12:1,2015-10-04T19:35:00Z,27.4980,-83.7220,100.56,1111122 
COMPS,ioos:station:USF.COMPS:C12:1,2015-10-04T20:05:00Z,27.4980,-83.7220,100.67,1111122 
COMPS,ioos:station:USF.COMPS:C12:1,2015-10-04T20:35:00Z,27.4980,-83.7220,100.85,1111122 
COMPS,ioos:station:USF.COMPS:C12:1,2015-10-04T21:05:00Z,27.4980,-83.7220,100.97,1111122 
COMPS,ioos:station:USF.COMPS:C12:1,2015-10-04T21:35:00Z,27.4980,-83.7220,100.94,1111122 
COMPS,ioos:station:USF.COMPS:C12:1,2015-10-04T22:05:00Z,27.4980,-83.7220,100.8,1111122 
COMPS,ioos:station:USF.COMPS:C12:1,2015-10-04T22:35:00Z,27.4980,-83.7220,100.79,1111122 
COMPS,ioos:station:USF.COMPS:C12:1,2015-10-04T23:05:00Z,27.4980,-83.7220,100.83,1111122 
COMPS,ioos:station:USF.COMPS:C12:1,2015-10-04T23:35:00Z,27.4980,-83.7220,100.83,1111122 
COMPS,ioos:station:USF.COMPS:C12:1,2015-10-05T00:05:00Z,27.4980,-83.7220,100.81,1111122 
COMPS,ioos:station:USF.COMPS:C12:1,2015-10-05T00:35:00Z,27.4980,-83.7220,100.8,1111122 
COMPS,ioos:station:USF.COMPS:C12:1,2015-10-05T01:05:00Z,27.4980,-83.7220,100.66,1111122 
COMPS,ioos:station:USF.COMPS:C12:1,2015-10-05T01:35:00Z,27.4980,-83.7220,100.73,1111122 
COMPS,ioos:station:USF.COMPS:C12:1,2015-10-05T02:05:00Z,27.4980,-83.7220,100.69,1111122 
COMPS,ioos:station:USF.COMPS:C12:1,2015-10-05T02:35:00Z,27.4980,-83.7220,100.81,1111122 
COMPS,ioos:station:USF.COMPS:C12:1,2015-10-05T04:05:00Z,27.4980,-83.7220,100.88,1111122 
COMPS,ioos:station:USF.COMPS:C12:1,2015-10-05T04:35:00Z,27.4980,-83.7220,100.93,1111122 
COMPS,ioos:station:USF.COMPS:C12:1,2015-10-05T05:05:00Z,27.4980,-83.7220,100.81,1111122 
COMPS,ioos:station:USF.COMPS:C12:1,2015-10-05T05:35:00Z,27.4980,-83.7220,100.79,1111122 
COMPS,ioos:station:USF.COMPS:C12:1,2015-10-05T06:05:00Z,27.4980,-83.7220,100.83,1111122 
COMPS,ioos:station:USF.COMPS:C12:1,2015-10-05T06:35:00Z,27.4980,-83.7220,100.74,1111122 
COMPS,ioos:station:USF.COMPS:C12:1,2015-10-05T07:05:00Z,27.4980,-83.7220,100.87,1111122 
COMPS,ioos:station:USF.COMPS:C12:1,2015-10-05T07:35:00Z,27.4980,-83.7220,100.59,1111122 
COMPS,ioos:station:USF.COMPS:C12:1,2015-10-05T08:05:00Z,27.4980,-83.7220,100.85,1111122 
COMPS,ioos:station:USF.COMPS:C12:1,2015-10-05T08:35:00Z,27.4980,-83.7220,100.89,1111122 
COMPS,ioos:station:USF.COMPS:C12:1,2015-10-05T09:05:00Z,27.4980,-83.7220,100.8,1111122 
COMPS,ioos:station:USF.COMPS:C12:1,2015-10-05T09:35:00Z,27.4980,-83.7220,100.92,1111122 
COMPS,ioos:station:USF.COMPS:C12:1,2015-10-05T10:05:00Z,27.4980,-83.7220,100.8,1111122 
COMPS,ioos:station:USF.COMPS:C12:1,2015-10-05T10:35:00Z,27.4980,-83.7220,100.83,1111122 
COMPS,ioos:station:USF.COMPS:C12:1,2015-10-05T11:05:00Z,27.4980,-83.7220,101.04,1111122 
COMPS,ioos:station:USF.COMPS:C12:1,2015-10-05T11:35:00Z,27.4980,-83.7220,100.85,1111122 
COMPS,ioos:station:USF.COMPS:C12:1,2015-10-05T12:05:00Z,27.4980,-83.7220,100.86,1111122 
COMPS,ioos:station:USF.COMPS:C12:1,2015-10-05T12:35:00Z,27.4980,-83.7220,100.86,1111122 
COMPS,ioos:station:USF.COMPS:C12:1,2015-10-05T13:05:00Z,27.4980,-83.7220,100.86,1111122 
COMPS,ioos:station:USF.COMPS:C12:1,2015-10-05T13:35:00Z,27.4980,-83.7220,100.54,1111122 
COMPS,ioos:station:USF.COMPS:C12:1,2015-10-05T14:05:00Z,27.4980,-83.7220,100.09,1111122 
COMPS,ioos:station:USF.COMPS:C12:1,2015-10-05T14:35:00Z,27.4980,-83.7220,100.37,1111122 
COMPS,ioos:station:USF.COMPS:C12:1,2015-10-05T15:05:00Z,27.4980,-83.7220,100.46,1111122 
COMPS,ioos:station:USF.COMPS:C12:1,2015-10-05T15:35:00Z,27.4980,-83.7220,100.44,1111122 
COMPS,ioos:station:USF.COMPS:C12:1,2015-10-05T16:05:00Z,27.4980,-83.7220,100.43,1111122 
COMPS,ioos:station:USF.COMPS:C12:1,2015-10-05T16:35:00Z,27.4980,-83.7220,100.43,1111122 
COMPS,ioos:station:USF.COMPS:C12:1,2015-10-05T17:05:00Z,27.4980,-83.7220,100.42,1111122 
COMPS,ioos:station:USF.COMPS:C12:1,2015-10-05T17:35:00Z,27.4980,-83.7220,100.42,1111122 
COMPS,ioos:station:USF.COMPS:C12:1,2015-10-05T18:05:00Z,27.4980,-83.7220,100.47,1111122 
COMPS,ioos:station:USF.COMPS:C12:1,2015-10-05T18:35:00Z,27.4980,-83.7220,100.55,1111122 
COMPS,ioos:station:USF.COMPS:C12:1,2015-10-05T19:05:00Z,27.4980,-83.7220,100.59,1111122 
COMPS,ioos:station:USF.COMPS:C12:1,2015-10-05T19:35:00Z,27.4980,-83.7220,100.6,1111122 
COMPS,ioos:station:USF.COMPS:C12:1,2015-10-05T20:05:00Z,27.4980,-83.7220,100.62,1111122 
COMPS,ioos:station:USF.COMPS:C12:1,2015-10-05T20:35:00Z,27.4980,-83.7220,100.68,1111122 
COMPS,ioos:station:USF.COMPS:C12:1,2015-10-05T21:05:00Z,27.4980,-83.7220,100.58,1111122 
COMPS,ioos:station:USF.COMPS:C12:1,2015-10-05T21:35:00Z,27.4980,-83.7220,100.56,1111122 
COMPS,ioos:station:USF.COMPS:C12:1,2015-10-05T22:05:00Z,27.4980,-83.7220,100.55,1111122 
COMPS,ioos:station:USF.COMPS:C12:1,2015-10-05T22:35:00Z,27.4980,-83.7220,100.5,1111122 
COMPS,ioos:station:USF.COMPS:C12:1,2015-10-05T23:05:00Z,27.4980,-83.7220,100.54,1111122 
COMPS,ioos:station:USF.COMPS:C12:1,2015-10-05T23:35:00Z,27.4980,-83.7220,100.49,1111122 
COMPS,ioos:station:USF.COMPS:C12:1,2015-10-06T00:05:00Z,27.4980,-83.7220,100.5,1111122 
COMPS,ioos:station:USF.COMPS:C12:1,2015-10-06T00:35:00Z,27.4980,-83.7220,100.47,1111122 
COMPS,ioos:station:USF.COMPS:C12:1,2015-10-06T01:05:00Z,27.4980,-83.7220,100.46,1111122 
COMPS,ioos:station:USF.COMPS:C12:1,2015-10-06T01:35:00Z,27.4980,-83.7220,100.48,1111122 
COMPS,ioos:station:USF.COMPS:C12:1,2015-10-06T02:05:00Z,27.4980,-83.7220,100.51,1111122 
COMPS,ioos:station:USF.COMPS:C12:1,2015-10-06T02:35:00Z,27.4980,-83.7220,100.52,1111122 
COMPS,ioos:station:USF.COMPS:C12:1,2015-10-06T04:05:00Z,27.4980,-83.7220,100.5,1111122 
COMPS,ioos:station:USF.COMPS:C12:1,2015-10-06T04:35:00Z,27.4980,-83.7220,100.47,1111122 
COMPS,ioos:station:USF.COMPS:C12:1,2015-10-06T05:05:00Z,27.4980,-83.7220,100.48,1111122 
COMPS,ioos:station:USF.COMPS:C12:1,2015-10-06T05:35:00Z,27.4980,-83.7220,100.49,1111122 
COMPS,ioos:station:USF.COMPS:C12:1,2015-10-06T06:05:00Z,27.4980,-83.7220,100.5,1111122 
COMPS,ioos:station:USF.COMPS:C12:1,2015-10-06T06:35:00Z,27.4980,-83.7220,100.52,1111122 
COMPS,ioos:station:USF.COMPS:C12:1,2015-10-06T07:05:00Z,27.4980,-83.7220,100.5,1111122 
COMPS,ioos:station:USF.COMPS:C12:1,2015-10-06T07:35:00Z,27.4980,-83.7220,100.34,1111122 
COMPS,ioos:station:USF.COMPS:C12:1,2015-10-06T08:05:00Z,27.4980,-83.7220,100.5,1111122 
COMPS,ioos:station:USF.COMPS:C12:1,2015-10-06T08:35:00Z,27.4980,-83.7220,100.08,1111122 
COMPS,ioos:station:USF.COMPS:C12:1,2015-10-06T09:05:00Z,27.4980,-83.7220,100.22,1111122 
COMPS,ioos:station:USF.COMPS:C12:1,2015-10-06T09:35:00Z,27.4980,-83.7220,100.5,1111122 
COMPS,ioos:station:USF.COMPS:C12:1,2015-10-06T10:05:00Z,27.4980,-83.7220,100.37,1111122 
COMPS,ioos:station:USF.COMPS:C12:1,2015-10-06T10:35:00Z,27.4980,-83.7220,100.69,1111122 
COMPS,ioos:station:USF.COMPS:C12:1,2015-10-06T11:05:00Z,27.4980,-83.7220,100.69,1111122 
COMPS,ioos:station:USF.COMPS:C12:1,2015-10-06T11:35:00Z,27.4980,-83.7220,100.4,1111122 
COMPS,ioos:station:USF.COMPS:C12:1,2015-10-06T12:05:00Z,27.4980,-83.7220,100.43,1111122 
COMPS,ioos:station:USF.COMPS:C12:1,2015-10-06T12:35:00Z,27.4980,-83.7220,100.81,1111122 
COMPS,ioos:station:USF.COMPS:C12:1,2015-10-06T13:05:00Z,27.4980,-83.7220,100.8,1111122 
COMPS,ioos:station:USF.COMPS:C12:1,2015-10-06T13:35:00Z,27.4980,-83.7220,100.38,1111122 
COMPS,ioos:station:USF.COMPS:C12:1,2015-10-06T14:05:00Z,27.4980,-83.7220,100.85,1111122 
COMPS,ioos:station:USF.COMPS:C12:1,2015-10-06T14:35:00Z,27.4980,-83.7220,100.87,1111122 
COMPS,ioos:station:USF.COMPS:C12:1,2015-10-06T15:05:00Z,27.4980,-83.7220,100.86,1111122 
COMPS,ioos:station:USF.COMPS:C12:1,2015-10-06T15:35:00Z,27.4980,-83.7220,100.64,1111122 
COMPS,ioos:station:USF.COMPS:C12:1,2015-10-06T16:05:00Z,27.4980,-83.7220,100.78,1111122 
COMPS,ioos:station:USF.COMPS:C12:1,2015-10-06T16:35:00Z,27.4980,-83.7220,100.5,1111122 
COMPS,ioos:station:USF.COMPS:C12:1,2015-10-06T17:05:00Z,27.4980,-83.7220,100.69,1111122 
COMPS,ioos:station:USF.COMPS:C12:1,2015-10-06T17:35:00Z,27.4980,-83.7220,100.64,1111122 
COMPS,ioos:station:USF.COMPS:C12:1,2015-10-06T18:05:00Z,27.4980,-83.7220,100.67,1111122 
COMPS,ioos:station:USF.COMPS:C12:1,2015-10-06T18:35:00Z,27.4980,-83.7220,100.67,1111122 
COMPS,ioos:station:USF.COMPS:C12:1,2015-10-06T19:05:00Z,27.4980,-83.7220,100.5,1111122 
COMPS,ioos:station:USF.COMPS:C12:1,2015-10-06T19:35:00Z,27.4980,-83.7220,100.64,1111122 
COMPS,ioos:station:USF.COMPS:C12:1,2015-10-06T20:05:00Z,27.4980,-83.7220,100.35,1111122 
COMPS,ioos:station:USF.COMPS:C12:1,2015-10-06T20:35:00Z,27.4980,-83.7220,100.63,1111122 
COMPS,ioos:station:USF.COMPS:C12:1,2015-10-06T21:05:00Z,27.4980,-83.7220,100.31,1111122 
COMPS,ioos:station:USF.COMPS:C12:1,2015-10-06T21:35:00Z,27.4980,-83.7220,100.14,1111122 
COMPS,ioos:station:USF.COMPS:C12:1,2015-10-06T22:05:00Z,27.4980,-83.7220,100.52,1111122 
COMPS,ioos:station:USF.COMPS:C12:1,2015-10-06T22:35:00Z,27.4980,-83.7220,100.4,1111122 
COMPS,ioos:station:USF.COMPS:C12:1,2015-10-06T23:05:00Z,27.4980,-83.7220,100.56,1111122 
COMPS,ioos:station:USF.COMPS:C12:1,2015-10-06T23:35:00Z,27.4980,-83.7220,100.44,1111122 
COMPS,ioos:station:USF.COMPS:C12:1,2015-10-07T00:05:00Z,27.4980,-83.7220,100.51,1111122 
COMPS,ioos:station:USF.COMPS:C12:1,2015-10-07T00:35:00Z,27.4980,-83.7220,100.51,1111122 
COMPS,ioos:station:USF.COMPS:C12:1,2015-10-07T01:05:00Z,27.4980,-83.7220,100.58,1111122 
COMPS,ioos:station:USF.COMPS:C12:1,2015-10-07T01:35:00Z,27.4980,-83.7220,100.76,1111122 
COMPS,ioos:station:USF.COMPS:C12:1,2015-10-07T04:05:00Z,27.4980,-83.7220,100.71,1111122 
COMPS,ioos:station:USF.COMPS:C12:1,2015-10-07T04:35:00Z,27.4980,-83.7220,100.72,1111122 
COMPS,ioos:station:USF.COMPS:C12:1,2015-10-07T05:05:00Z,27.4980,-83.7220,100.71,1111122 
COMPS,ioos:station:USF.COMPS:C12:1,2015-10-07T05:35:00Z,27.4980,-83.7220,100.71,1111122 
COMPS,ioos:station:USF.COMPS:C12:1,2015-10-07T06:05:00Z,27.4980,-83.7220,100.61,1111122 
COMPS,ioos:station:USF.COMPS:C12:1,2015-10-07T06:35:00Z,27.4980,-83.7220,100.58,1111122 
COMPS,ioos:station:USF.COMPS:C12:1,2015-10-07T07:05:00Z,27.4980,-83.7220,100.53,1111122 
COMPS,ioos:station:USF.COMPS:C12:1,2015-10-07T07:35:00Z,27.4980,-83.7220,100.22,1111122 
COMPS,ioos:station:USF.COMPS:C12:1,2015-10-07T08:05:00Z,27.4980,-83.7220,100.66,1111122 
COMPS,ioos:station:USF.COMPS:C12:1,2015-10-07T08:35:00Z,27.4980,-83.7220,100.09,1111122 
COMPS,ioos:station:USF.COMPS:C12:1,2015-10-07T09:05:00Z,27.4980,-83.7220,100.62,1111122 